TimeCDT,TemperatureF,Dew PointF,Humidity,Sea Level PressureIn,VisibilityMPH,Wind Direction,Wind SpeedMPH,Gust SpeedMPH,PrecipitationIn,Events,Conditions,WindDirDegrees,DateUTC
12:44 AM,78.8,75.2,89,29.99,7.0,East,3.5,-,N/A,,Scattered Clouds,80,2012-10-11 05:44:00
1:40 AM,78.8,75.2,89,29.98,7.0,ENE,4.6,-,N/A,,Scattered Clouds,70,2012-10-11 06:40:00
2:45 AM,77.0,73.4,89,29.97,7.0,Calm,Calm,-,N/A,,Scattered Clouds,0,2012-10-11 07:45:00
3:49 AM,75.2,73.4,94,29.95,7.0,NNW,4.6,-,N/A,,Scattered Clouds,330,2012-10-11 08:49:00
4:48 AM,75.2,73.4,94,29.97,7.0,North,3.5,-,N/A,,Scattered Clouds,360,2012-10-11 09:48:00
5:46 AM,75.2,73.4,94,29.98,7.0,Calm,Calm,-,N/A,,Scattered Clouds,0,2012-10-11 10:46:00
6:45 AM,75.2,73.4,94,29.99,7.0,NE,2.3,-,N/A,,Scattered Clouds,50,2012-10-11 11:45:00
7:50 AM,80.6,73.4,79,30.02,7.0,ENE,5.8,-,N/A,,Scattered Clouds,60,2012-10-11 12:50:00
8:49 AM,84.2,75.2,74,30.05,7.0,East,6.9,-,N/A,,Scattered Clouds,100,2012-10-11 13:49:00
9:46 AM,84.2,75.2,74,30.06,7.0,ESE,10.4,-,N/A,,Scattered Clouds,120,2012-10-11 14:46:00
10:46 AM,86.0,75.2,70,30.05,7.0,ENE,6.9,-,N/A,,Scattered Clouds,60,2012-10-11 15:46:00
11:52 AM,86.0,77.0,74,30.04,7.0,East,6.9,-,N/A,,Scattered Clouds,100,2012-10-11 16:52:00
12:47 PM,87.8,75.2,66,30.02,7.0,East,8.1,-,N/A,,Scattered Clouds,100,2012-10-11 17:47:00
1:55 PM,86.0,75.2,70,29.98,7.0,NE,10.4,-,N/A,,Scattered Clouds,40,2012-10-11 18:55:00
2:42 PM,86.0,75.2,70,29.97,7.0,NE,9.2,-,N/A,,Mostly Cloudy,50,2012-10-11 19:42:00
3:43 PM,84.2,75.2,74,29.98,7.0,NE,8.1,-,N/A,,Mostly Cloudy,50,2012-10-11 20:43:00
4:41 PM,86.0,75.2,70,29.97,7.0,ENE,9.2,-,N/A,,Mostly Cloudy,60,2012-10-11 21:41:00
5:42 PM,84.2,75.2,74,29.98,7.0,NE,5.8,-,N/A,,Mostly Cloudy,50,2012-10-11 22:42:00
6:44 PM,82.4,75.2,79,29.98,7.0,NE,8.1,-,N/A,,Mostly Cloudy,50,2012-10-11 23:44:00
7:44 PM,80.6,75.2,84,29.99,7.0,ENE,6.9,-,N/A,,Mostly Cloudy,70,2012-10-12 00:44:00
8:41 PM,78.8,75.2,89,30.01,7.0,ENE,6.9,-,N/A,,Mostly Cloudy,60,2012-10-12 01:41:00
9:48 PM,78.8,75.2,89,29.98,7.0,ENE,5.8,-,N/A,,Mostly Cloudy,70,2012-10-12 02:48:00
10:47 PM,78.8,75.2,89,30.03,7.0,East,9.2,-,N/A,,Mostly Cloudy,80,2012-10-12 03:47:00
11:46 PM,78.8,75.2,89,30.03,7.0,ENE,10.4,-,N/A,,Mostly Cloudy,60,2012-10-12 04:46:00